Location: Crab Orchard
(37.7292°N, 88.8042°W)
Time: 09:40:01
(UTC+00:00)

Okean 3 - Pass Details

Date: 08 December 2019
Orbit: 577 x 600 km, 82.5° (Epoch: 19 January)

Event Time Altitude Azimuth Distance (km) Brightness Sun altitude
Rises 12:12:16 0° 353° (N) 2,801 6.6 -9.0°
Reaches altitude 10° 12:14:28 10° 354° (N) 1,899 5.8 -8.6°
Maximum altitude 12:18:40 86° 84° (E) 588 3.5 -7.8°
Drops below altitude 10° 12:22:51 10° 172° (S) 1,895 6.5 -7.0°
Sets 12:25:02 0° 173° (S) 2,794 7.4 -6.7°
